Regional Weather Roundup
Issued by NWS

Home | Current Version | Previous Version | Graphics & Text | Print | Product List | Glossary On
Versions: 1 2 3 4 5 6 7 8 9 10 11 12 13 14 15 16 17 18 19 20 21 22 23 24 25 26 27 28 29 30 31 32 33 34 35 36 37 38 39 40 41 42 43 44 45 46 47 48 49 50
000
ASUS43 KFSD 231110
RWRSD

WEATHER ROUNDUP FOR SOUTH DAKOTA
NATIONAL WEATHER SERVICE SIOUX FALLS SD
600 AM CDT FRI JUN 23 2017

NOTE: "FAIR" INDICATES FEW OR NO CLOUDS BELOW 12,000 FEET WITH NO
SIGNIFICANT WEATHER AND/OR OBSTRUCTIONS TO VISIBILITY.


SDZ001>005-009-010-012>017-231200-
NORTHWEST AND NORTH CENTRAL SOUTH DAKOTA

CITY           SKY/WX    TMP DP  RH WIND       PRES   REMARKS
BUFFALO          N/A     51  42  71 NW21G29   30.09R
FAITH            N/A     53  46  77 NW24G35   30.09R
MOBRIDGE       CLOUDY    58  46  64 NW28G37   29.98R
$$

SDZ012>016-024>037-041>051-057-063-072>074-231200-
SOUTHWEST AND SOUTH CENTRAL SOUTH DAKOTA

CITY           SKY/WX    TMP DP  RH WIND       PRES   REMARKS
RAPID CTY ARPT CLOUDY    54  38  54 NW17      30.17R
PIERRE         PTCLDY    55  47  74 W15       30.02R
CUSTER         PTCLDY    43  33  68 VRB6G22   30.22R
ELLSWORTH AFB  CLOUDY    54  39  57 NW17G26   30.17R
PHILIP         MOCLDY    55  44  66 W15       30.12R
PINE RIDGE     CLOUDY    53  47  79 W6        30.21R
SPEARFISH      CLOUDY    50  39  66 W17       30.21R
WINNER         FAIR      59  45  59 NW20G26   30.07R
$$

SDZ004>011-016>023-039-040-231200-
NORTHEAST SOUTH DAKOTA

CITY           SKY/WX    TMP DP  RH WIND       PRES   REMARKS
ABERDEEN       CLOUDY    57  49  74 W14G21    29.90R
WATERTOWN      CLEAR     55  48  77 NW16G23   29.87R
BROOKINGS      CLEAR     54  46  74 NW10      29.89R
SISSETON         N/A     59  52  77 W17G25    29.81R
$$

SDZ017-020-022-023-036>040-048>070-231200-
SOUTHEAST SOUTH DAKOTA

CITY           SKY/WX    TMP DP  RH WIND       PRES   REMARKS
SIOUX FALLS    PTCLDY    55  47  74 NW10      29.91R
HURON          MOCLDY    55  49  80 NW16      29.93R
CHAMBERLAIN    CLOUDY    58  48  70 W14       30.03R
MITCHELL       CLEAR     57  46  66 NW10      29.96R
YANKTON        CLOUDY    57  44  62 NW13      29.95R
$$

ABBREVIATIONS USED IN REMARKS
   TC - TEMPERATURE IN CELSIUS
  WCI - WIND CHILL INDEX
   HX - HEAT INDEX
  VSB - VISIBILITY





USA.gov is the U.S. government's official web portal to all federal, state and local government web resources and services.